User: anonymous   Login
Location: Coleman
(45.0650°N, 88.0340°W)
Time: 23:21:12
(UTC-05:00)
Language:

Iridium 97 - Orbit

View from above orbital plane
View from above orbital plane
View from above satellite
View from above satellite

Ground track
Ground track

The orbit data is extracted from the following two-line orbital elements,

1 27450U 02031A   14298.12661912  .00000741  00000-0  25756-3 0  4250
2 27450 086.3986 002.7275 0003040 121.6831 238.4662 14.34223721651767
Epoch (UTC): 25 October 2014 03:02:19
Eccentricity: 0.0003040
inclination: 86.3986°
perigee height: 775 km
apogee height: 780 km
right ascension of ascending node: 2.7275°
argument of perigee: 121.6831°
revolutions per day: 14.34223721
mean anomaly at epoch: 238.4662°
orbit number at epoch: 65176

The dashed part of the orbit path shows where the satellite is in the earth's shadow,  

DLR